Regional Weather Roundup
Issued by NWS

Home | Current Version | Previous Version | Graphics & Text | Print | Product List | Glossary On
Versions: 1 2 3 4 5 6 7 8 9 10 11 12 13 14 15 16 17 18 19 20 21 22 23 24 25 26 27 28 29 30 31 32 33 34 35 36 37 38 39 40 41 42 43 44 45 46 47 48 49 50
000
ASUS43 KFSD 210102
RWRSD

WEATHER ROUNDUP FOR SOUTH DAKOTA
NATIONAL WEATHER SERVICE SIOUX FALLS SD
800 PM CDT SUN AUG 20 2017

NOTE: "FAIR" INDICATES FEW OR NO CLOUDS BELOW 12,000 FEET WITH NO
SIGNIFICANT WEATHER AND/OR OBSTRUCTIONS TO VISIBILITY.


SDZ001>005-009-010-012>017-210200-
NORTHWEST AND NORTH CENTRAL SOUTH DAKOTA

CITY           SKY/WX    TMP DP  RH WIND       PRES   REMARKS
BUFFALO          N/A     75  43  31 E23       29.90F
FAITH            N/A     72  47  40 E14G22    30.01F
MOBRIDGE       MOCLDY    66  54  65 E9        30.01S
$$

SDZ012>016-024>037-041>051-057-063-072>074-210200-
SOUTHWEST AND SOUTH CENTRAL SOUTH DAKOTA

CITY           SKY/WX    TMP DP  RH WIND       PRES   REMARKS
RAPID CTY ARPT CLEAR     78  54  43 SE12      29.98F
PIERRE         CLEAR     71  47  42 E8        29.98F
CUSTER         CLEAR     69  50  50 E10G24    30.11S
ELLSWORTH AFB  CLEAR     79  54  42 SE9       29.97F
PHILIP         CLEAR     79  56  45 E14G22    29.97S
PINE RIDGE     CLEAR     80  55  42 E10       29.98F
SPEARFISH      FAIR      79  52  38 SE15G22   29.96S
WINNER         FAIR      76  59  55 NE9       29.98S
$$

SDZ004>011-016>023-039-040-210200-
NORTHEAST SOUTH DAKOTA

CITY           SKY/WX    TMP DP  RH WIND       PRES   REMARKS
ABERDEEN       MOCLDY    65  57  75 NE6       30.03F
WATERTOWN      CLEAR     67  53  61 CALM      30.01S
BROOKINGS      CLEAR     69  56  62 E8        30.02F
SISSETON         N/A     66  64  93 NW3       30.01R
$$

SDZ017-020-022-023-036>040-048>070-210200-
SOUTHEAST SOUTH DAKOTA

CITY           SKY/WX    TMP DP  RH WIND       PRES   REMARKS
SIOUX FALLS    PTCLDY    74  63  68 NE12      29.99R
HURON          CLEAR     70  55  59 SE10      29.97F
CHAMBERLAIN    CLEAR     74  62  66 NE8       29.98S
MITCHELL       CLEAR     74  65  73 NE7       29.98R
YANKTON        PTCLDY    79  72  79 E7        29.95R
$$

ABBREVIATIONS USED IN REMARKS
   TC - TEMPERATURE IN CELSIUS
  WCI - WIND CHILL INDEX
   HX - HEAT INDEX
  VSB - VISIBILITY




USA.gov is the U.S. government's official web portal to all federal, state and local government web resources and services.